Regional Weather Roundup
Issued by NWS

Home | Current Version | Previous Version | Text Only | Print | Product List | Glossary Off
Versions: 1 2 3 4 5 6 7 8 9 10 11 12 13 14 15 16 17 18 19 20 21 22 23 24 25 26 27 28 29 30 31 32 33 34 35 36 37 38 39 40 41 42 43 44 45 46 47 48 49 50

000
ASUS43 KDMX 280507
RWRIA

WEATHER ROUNDUP FOR IOWA
NATIONAL WEATHER SERVICE DES MOINES IA
1200 AM CDT SAT MAR 28 2015

NOTE: "FAIR" INDICATES FEW OR NO CLOUDS BELOW 12,000 FEET WITH NO
SIGNIFICANT WEATHER AND/OR OBSTRUCTIONS TO VISIBILITY.

* - THESE STATIONS ARE NOT NWS STATIONS...THUS NOT UNDER NWS
QUALITY CONTROL.  THEY ALSO DO NOT REPORT WEATHER SUCH
AS PRECIPITATION OR FOG.

IAZ001>003-012>014-020>022-031>034-043>046-280600-
   NORTHWEST IOWA

CITY           SKY/WX    TMP DP  RH WIND       PRES   REMARKS
CARROLL *      CLOUDY    32  23  69 SW6       30.12F WCI  26
CHEROKEE *     FLURRIES  30  27  86 SE6       30.12R WCI  24
DENISON *      CLOUDY    30  28  93 SE7       30.10S WCI  23
LE MARS *      CLOUDY    32  25  74 SE8       30.10S WCI  25
ORANGE CITY *  CLOUDY    34  25  69 SE5       30.10R WCI  30
SHELDON *      FLURRIES  28  28 100 E10       30.10S WCI  19
SIOUX CITY     CLOUDY    34  24  67 SE9       30.09R WCI  27
SPENCER        LGT SNOW  29  25  85 SE5       30.14R FOG     WCI  24
STORM LAKE *   FLURRIES  30  27  86 SE6       30.12R WCI  24
$$

IAZ055>058-069>071-079>083-090>094-280600-
   SOUTHWEST IOWA

CITY           SKY/WX    TMP DP  RH WIND       PRES   REMARKS
ATLANTIC *     LGT SNOW  32  28  86 SE7       30.13S WCI  26
AUDUBON *      PTCLDY    34  23  64 CALM      30.13S
CLARINDA *     FLURRIES  34  27  75 SE3       30.15S
COUNCIL BLFS * CLOUDY    36  23  60 SE8       30.09F WCI  29
CRESTON *      CLOUDY    34  23  64 CALM      30.14R
HARLAN  *      FLURRIES  32  32 100 SE9       30.15R WCI  24
LAMONI         CLOUDY    36  20  52 S3        30.13F
RED OAK *      FLURRIES  34  25  69 SE8       30.12F WCI  27
SHENANDOAH *   MIX PCPN  36  27  69 SE9       30.13S WCI  29
$$

IAZ047>049-059>061-072>074-084-280600-
   CENTRAL IOWA

CITY           SKY/WX    TMP DP  RH WIND       PRES   REMARKS
AMES           CLOUDY    30  17  58 SE5       30.15F WCI  25
ANKENY *       CLOUDY    32  16  51 SE6       30.16S WCI  26
CHARITON *     CLOUDY    32  18  55 E6        30.15F WCI  26
DES MOINES     CLOUDY    35  12  38 SE9       30.15F WCI  28
GRINNELL*      MOCLDY    28  16  59 E5        30.17S WCI  23
KNOXVILLE *    CLOUDY    30  10  43 SE5       30.15S WCI  25
MARSHALLTOWN   PTCLDY    26  18  71 E8        30.17R WCI  18
PELLA *        MOCLDY    28  17  63 SE5       30.18S WCI  23
PERRY *        CLOUDY    34  21  60 SE7       30.14S WCI  28
$$

IAZ004>006-015-016-023>025-035-036-280600-
   NORTH CENTRAL IOWA

CITY           SKY/WX    TMP DP  RH WIND       PRES   REMARKS
ALGONA *       CLOUDY    32  19  59 SE7       30.14S WCI  26
CLARION *      CLOUDY    28  21  74 E10       30.15S WCI  19
ESTHERVILLE    CLOUDY    31  21  66 SW5       30.12S WCI  26
FORT DODGE *   CLOUDY    30  18  59 E7        30.14S WCI  23
MASON CITY     CLOUDY    26  15  63 E7        30.18S WCI  18
FOREST CITY *  MOCLDY    27  18  69 SE8       30.16R WCI  18
IOWA FALLS *     N/A     28  19  69 E8        30.17S WCI  20
$$

IAZ007>011-017>019-026>030-037>042-050>054-066-280600-
   NORTHEAST IOWA

CITY           SKY/WX    TMP DP  RH WIND       PRES   REMARKS
CEDAR RAPIDS   PTCLDY    24  14  65 E7        30.19R WCI  16
CHARLES CITY * CLOUDY    23  18  80 E5        30.19S WCI  17
CLINTON *      CLEAR     23  14  68 CALM      30.24S
DECORAH *      PTCLDY    21  10  63 CALM      30.18S
DUBUQUE        CLEAR     21  10  62 CALM      30.19S
MONTICELLO *   CLEAR     21  18  86 CALM      30.20S
OELWEIN *      PTCLDY    25  16  68 E3        30.19S
WATERLOO       PTCLDY    23  15  71 SE5       30.18S WCI  17
$$

IAZ064-065-067-068-078-280600-
   EAST CENTRAL IOWA

CITY           SKY/WX    TMP DP  RH WIND       PRES   REMARKS
DAVENPORT      CLEAR     24  12  60 E5        30.22R WCI  18
IOWA CITY      PTCLDY    29  12  49 E6        30.22S WCI  23
MT. PLEASANT * PTCLDY    25  14  63 CALM      30.20S
MUSCATINE *    CLEAR     25  16  68 CALM      30.22S
QUAD CITIES    CLEAR     24  15  68 CALM      30.21S
$$

IAZ062-063-075>077-085>089-095>099-280600-
   SOUTHEAST IOWA

CITY           SKY/WX    TMP DP  RH WIND       PRES   REMARKS
BURLINGTON     PTCLDY    30  12  47 E5        30.20S WCI  25
FAIRFIELD *    PTCLDY    23  12  63 E5        30.19S WCI  17
FORT MADISON * CLEAR     27  16  63 CALM      30.20S
KEOKUK *       CLEAR     30  14  51 E5        30.19S WCI  25
OSKALOOSA *      N/A     28  14  54 E6        30.19R WCI  22
CENTERVILLE *  CLOUDY    30  14  51 E5        30.18R WCI  25
OTTUMWA        MOCLDY    29  13  51 E7        30.18S WCI  22
WASHINGTON *   CLEAR     25  16  68 E6        30.19S WCI  18
$$

ABBREVIATIONS USED IN REMARKS
   TC - TEMPERATURES IN CELSIUS
  WCI - WIND CHILL INDEX
   HX - HEAT INDEX
  VSB - VISIBILITY
$$




USA.gov is the U.S. government's official web portal to all federal, state and local government web resources and services.